Starlink 5873

operational
NORAD ID: 56490 Int'l Des: 2023-064 Owner: SPXS Country: US Constellation: starlink
LEOCIRCULAR

关于 Starlink 5873

正在加载描述...

实时位置

正在加载3D地球...

即将过境

高度历史

Altitude vs Time

uPlot chart will show altitude changes over time

两行轨道根数

1 56490U 23064AU 25261.21443467 -.00000309 00000-0 -18141-4 0 9999
2 56490 70.0008 179.4782 0002831 269.3958 90.6877 14.98333583130395
Epoch: Sep 18, 2025 • Age: 9 hours

当前状态

高度 575.0 km
速度 7.58 km/s
星下点 21.97°N, 144.62°E
发射日期 May 10, 2023
运行时间 2.3 years
类型 internet

技术详情

分类 Payload
质量 305.00 kg
干质量 290.00 kg
总质量 305.00 kg
长度 0.20 m
直径 2.80 m
跨度 9.00 m
形状 Box + pan
制造商 SPXS
平台类型 Starlink
阶段状态 In Orbit
所有者/国家 SPXS/US

大型星座

Loading constellations...